Location: La Brionne
(46.1728°N, 1.7849°E)
Time: 13:02:03
(UTC+00:00)

Cosmos 2219 Rocket - Pass Details

Date: 23 October 2021
Orbit: 826 x 848 km, 71.0° (Epoch: 01 December)

Event Time Altitude Azimuth Distance (km) Brightness Sun altitude
Exits shadow 03:32:50 - 341° (NNW) 3,329 5.3 -29.6°
Reaches altitude 10° 03:35:43 10° 357° (N) 2,465 4.7 -29.1°
Maximum altitude 03:39:54 21° 45° (NE) 1,827 4.5 -28.4°
Drops below altitude 10° 03:44:04 10° 93° (E) 2,466 5.5 -27.7°
Sets 03:47:09 0° 109° (ESE) 3,400 6.2 -27.2°
